Weather History for KSPI - July, 2013

Change the Weather History Date:

Tuesday, July 2, 2013

  Actual Average Record
Temperature  
Mean Temperature 67 °F 76 °F  
Max Temperature 73 °F 86 °F 102 °F (1925)
Min Temperature 61 °F 65 °F 53 °F (1995)
Degree Days  
Heating Degree Days 0 0  
Month to date heating degree days 0 0  
Since 1 June heating degree days 12 15  
Since 1 July heating degree days 0 0  
Cooling Degree Days 2 11  
Month to date cooling degree days 8 22  
Year to date cooling degree days 392 366  
Since 1 June cooling degree days 266 262  
Growing Degree Days 17 (Base 50)    
Moisture  
Dew Point 56 °F    
Average Humidity 69    
Maximum Humidity 84    
Minimum Humidity 53    
Precipitation  
Precipitation T in 0.13 in 2.14 in (1952)
Month to date precipitation T 0.26  
Year to date precipitation 27.07 18.73  
Snow  
Snow 0.00 in 0.00 in 0.00 in ()
Month to date snowfall 0.0 0.0  
Since 1 June snowfall 0.0 0.0  
Since 1 July snowfall 0.0 0.0  
Snow Depth 0.00 in    
Sea Level Pressure  
Sea Level Pressure 30.02 in    
Wind  
Wind Speed 9 mph (NNE)    
Max Wind Speed 15 mph    
Max Gust Speed 20 mph    
Visibility 10 miles    
Events Rain    
T = Trace of Precipitation, MM = Missing Value Source: NWS Daily Summary

Daily Weather History Graph

Daily Weather History Graph

Search for Another Location

Airport or City:

Trip Planner

Search our weather history database for the weather conditions in past years. The results will help you decide how hot, cold, wet, or windy it might be!

Date:

Astronomy

Jul. 02, 2013 Rise Set
Actual Time 5:34 AM CDT 8:30 PM CDT
Civil Twilight 5:02 AM CDT 9:03 PM CDT
Nautical Twilight 4:21 AM CDT 9:44 PM CDT
Astronomical Twilight 3:33 AM CDT 10:31 PM CDT
Moon 1:37 AM CDT (7/2) 3:45 PM CDT (7/2)
Length of Visible Light 16h 01m
Length of Day
14h 56m
Waning Crescent, 26% of the Moon is Illuminated
Jul 2
Waning Crescent
Jul 8
New
Jul 15
First Quarter
Jul 22
Full
Jul 29
Last Quarter

Hourly Weather History & Observations

Time (CDT) Temp. Dew Point Humidity Pressure Visibility Wind Dir Wind Speed Gust Speed Precip Events Conditions
12:52 AM 66.0 °F 55.9 °F 70% 30.01 in 10.0 mi NNE 8.1 mph - N/A   Overcast
1:52 AM 64.9 °F 55.0 °F 70% 29.99 in 10.0 mi North 10.4 mph - N/A   Mostly Cloudy
2:52 AM 64.0 °F 55.0 °F 73% 29.99 in 10.0 mi NNE 9.2 mph - N/A   Overcast
3:52 AM 63.0 °F 55.9 °F 78% 29.98 in 10.0 mi NNE 9.2 mph - N/A   Mostly Cloudy
4:52 AM 63.0 °F 55.9 °F 78% 29.99 in 10.0 mi NNE 9.2 mph - 0.00 in   Overcast
5:52 AM 63.0 °F 55.0 °F 75% 30.00 in 10.0 mi North 9.2 mph - N/A   Mostly Cloudy
6:52 AM 63.0 °F 55.9 °F 78% 30.01 in 10.0 mi North 10.4 mph - N/A   Overcast
7:52 AM 64.0 °F 55.9 °F 75% 30.02 in 10.0 mi North 10.4 mph - N/A   Mostly Cloudy
9:52 AM 63.0 °F 57.0 °F 81% 30.04 in 10.0 mi North 8.1 mph - 0.00 in Rain Light Rain
10:52 AM 64.0 °F 57.9 °F 80% 30.04 in 10.0 mi North 10.4 mph - 0.00 in Rain Light Rain
11:52 AM 66.9 °F 57.9 °F 73% 30.04 in 10.0 mi North 12.7 mph - 0.00 in   Overcast
12:52 PM 68.0 °F 57.9 °F 70% 30.04 in 10.0 mi NNE 13.8 mph - 0.00 in Rain Light Rain
1:52 PM 69.1 °F 57.9 °F 68% 30.04 in 10.0 mi North 8.1 mph - 0.00 in   Overcast
2:52 PM 72.0 °F 57.0 °F 59% 30.03 in 10.0 mi NNE 9.2 mph - N/A   Overcast
3:52 PM 72.0 °F 54.0 °F 53% 30.02 in 10.0 mi NNE 10.4 mph - N/A   Overcast
4:52 PM 71.1 °F 55.0 °F 57% 30.02 in 10.0 mi ENE 8.1 mph - N/A   Overcast
5:52 PM 71.1 °F 55.9 °F 59% 30.02 in 10.0 mi NE 5.8 mph - N/A   Overcast
6:52 PM 72.0 °F 57.0 °F 59% 30.01 in 10.0 mi NE 10.4 mph - N/A   Overcast
7:52 PM 69.1 °F 57.0 °F 65% 30.02 in 10.0 mi NE 8.1 mph - N/A   Overcast
8:52 PM 64.9 °F 57.0 °F 75% 30.02 in 10.0 mi NNE 4.6 mph - N/A   Clear
9:52 PM 64.0 °F 57.9 °F 80% 30.05 in 10.0 mi Calm Calm - N/A   Overcast
10:52 PM 62.1 °F 57.0 °F 84% 30.05 in 10.0 mi NNE 5.8 mph - N/A   Overcast
11:52 PM 62.1 °F 57.9 °F 86% 30.04 in 10.0 mi North 4.6 mph - N/A   Partly Cloudy